STARLINK-34874, 65335

Orbit data source: Space-Track

STARLINK-34874, 65335 is a payload satellite owned by SpaceX/Seattle (US) in LEO that was launched on Wed, 27 Aug 2025 UTC via an FALCON 9 launch vehicle from the Air Force Eastern Test Range (AFETR). Payload-class satellites include a variety of spacecraft equipped with specific instruments for various scientific and technological missions. These include communications satellites like Starlink; space stations such as the ISS; scientific satellites like the Hubble; Earth observation satellites from companies like Planet Labs, Umbra, and HawkEye 360; GPS; miniature CubeSats for education and research; and military/defense satellites.

Loading next visibility...
Identifier
65335, 2025-189N
Orbit
LEO
Country
Flag of USUS
Related business
Manufacturer
SpaceX/Seattle
Mission
Operational Commercial Communications
Bus & Motor
STARLINK V2MO, Unknown motor
Mass
575 kg wet, ~530 kg dry
Launch date (UTC)
2025-08-27 (10 months ago)
Launch vehicle
FALCON 9
Launch site
Air Force Eastern Test Range (AFETR)
Object type
Payload
Rocket body
Debris
Shape & HBR
Box + 2 Pan, 17.7 m
Radar Cross Section
36.964 m², Large (>1 m²)

Expand to show TLE details & history
Last TLE update: 1 day ago

TLE from 1 day ago
0 STARLINK-34874
1 65335U 25189N   26170.52273365  .00022123  00000-0  75634-3 0  9994
2 65335  53.1599  94.0342 0001414  76.1827 283.9331 15.30221564 46692
Epoch: 2026-06-19T12:32Z
TLE epoch observation values (Epoch: 2026-06-19T12:32:44.187Z)
Latitude
-0.00002°
Longitude
-1.90042°
Altitude
475.817 km
Speed
7.629 km/s
True Right ascension
06h 16m 08s
True Declination
0° 00' 00"
Sunlit
Object was in daylight at epoch
Visualization orbit readout
Latitude
Unknown
Longitude
Unknown
Altitude
Unknown
Speed
Unknown
Apparent Right ascension
Unknown
Apparent Declination
Unknown
Sunlit
N/A
Visualization observer readout
Local Sidereal Time
07:12:13
Azimuth
Unknown
Elevation
Unknown
Doppler factor
Unknown
Orbital elements
Apogee altitude
476.376 km
Perigee altitude
474.438 km
Semi-major axis
6,853.544 km
Eccentricity
0.00014
Inclination
53.1599°
RAAN
94.0342°
Arg. of periapsis
76.1827°
True anomaly
283.91737°
Mean anomaly
283.9331°
Eccentric anomaly
283.92524°
Mean motion
3.82534 °/min
Orbital period
94.11 mins
BSTAR
0.00075634
Loading maneuver chart data...
Computing Atmospheric mass density...
Loading historical data...
Loading historical data...
Loading historical data...
Loading historical data...
Loading historical data...
Loading historical data...
Loading historical data...

Documentation

Showing up to 5 results
|